| time (UTC) | temp F | wind direction | speed MPH | gust MPH | rain 1hr in | rain 24hr in | rain mn in | humidity % | barometer mb |
| 20260508121549 | 46 | 323 | 0.0 | 0.0 | 0.00 | 0.05 | 0.00 | 93 | 1011.5 |
| 20260508120047 | 45 | 323 | 0.0 | 1.0 | 0.00 | 0.05 | 0.00 | 94 | 1011.5 |
| 20260508114544 | 44 | 323 | 0.0 | 2.0 | 0.00 | 0.05 | 0.00 | 94 | 1011.1 |
| 20260508113058 | 44 | 323 | 0.0 | 0.0 | 0.00 | 0.05 | 0.00 | 94 | 1011.4 |
| 20260508111544 | 43 | 323 | 0.0 | 0.0 | 0.00 | 0.05 | 0.00 | 94 | 1011.3 |
| 20260508110051 | 43 | 323 | 0.0 | 0.0 | 0.00 | 0.05 | 0.00 | 94 | 1011.2 |
| 20260508104540 | 42 | 323 | 0.0 | 0.0 | 0.00 | 0.05 | 0.00 | 94 | 1011.0 |
| 20260508103039 | 42 | 323 | 0.0 | 0.0 | 0.00 | 0.05 | 0.00 | 94 | 1011.2 |
| 20260508101537 | 42 | 323 | 0.0 | 0.0 | 0.00 | 0.05 | 0.00 | 94 | 1011.5 |
| 20260508100036 | 41 | 323 | 0.0 | 1.0 | 0.00 | 0.05 | 0.00 | 94 | 1011.6 |
| 20260508094535 | 41 | 323 | 0.0 | 0.0 | 0.00 | 0.05 | 0.00 | 93 | 1011.5 |
| 20260508093036 | 41 | 323 | 0.0 | 0.0 | 0.00 | 0.05 | 0.00 | 93 | 1011.6 |
| 20260508091532 | 41 | 323 | 0.0 | 0.0 | 0.00 | 0.05 | 0.00 | 93 | 1011.8 |
| 20260508090031 | 41 | 323 | 0.0 | 0.0 | 0.00 | 0.05 | 0.00 | 93 | 1011.7 |
| 20260508084530 | 42 | 323 | 0.0 | 0.0 | 0.00 | 0.05 | 0.00 | 92 | 1011.9 |
| 20260508083030 | 42 | 323 | 0.0 | 2.0 | 0.00 | 0.05 | 0.00 | 92 | 1011.7 |
| 20260508081526 | 42 | 323 | 0.0 | 0.0 | 0.00 | 0.05 | 0.00 | 91 | 1012.1 |
| 20260508080023 | 43 | 323 | 0.0 | 0.0 | 0.00 | 0.05 | 0.00 | 90 | 1011.9 |
| 20260508074522 | 44 | 323 | 0.0 | 0.0 | 0.00 | 0.05 | 0.00 | 90 | 1011.9 |
| 20260508073021 | 44 | 323 | 0.0 | 0.0 | 0.00 | 0.05 | 0.00 | 90 | 1012.0 |
| 20260508071521 | 45 | 323 | 0.0 | 0.0 | 0.00 | 0.05 | 0.00 | 90 | 1012.3 |
| 20260508070018 | 45 | 323 | 0.0 | 0.0 | 0.00 | 0.05 | 0.00 | 90 | 1012.3 |
| 20260508064516 | 45 | 323 | 0.0 | 0.0 | 0.00 | 0.05 | 0.00 | 90 | 1012.3 |
| 20260508063015 | 45 | 323 | 0.0 | 0.0 | 0.00 | 0.05 | 0.00 | 89 | 1012.4 |
| 20260508061516 | 45 | 323 | 0.0 | 0.0 | 0.00 | 0.05 | 0.00 | 89 | 1012.3 |
| 20260508060011 | 45 | 323 | 0.0 | 0.0 | 0.00 | 0.05 | 0.00 | 88 | 1012.3 |
| 20260508054510 | 45 | 323 | 0.0 | 0.0 | 0.00 | 0.05 | 0.00 | 87 | 1012.4 |
| 20260508053010 | 46 | 323 | 0.0 | 0.0 | 0.00 | 0.05 | 0.00 | 86 | 1012.1 |
| 20260508051504 | 47 | 323 | 0.0 | 0.0 | 0.00 | 0.05 | 0.00 | 85 | 1012.0 |
| 20260508050004 | 47 | 323 | 0.0 | 0.0 | 0.00 | 0.05 | 0.05 | 83 | 1011.9 |
| 20260508044503 | 48 | 323 | 0.0 | 0.0 | 0.00 | 0.05 | 0.05 | 82 | 1012.1 |
| 20260508043001 | 49 | 323 | 0.0 | 0.0 | 0.00 | 0.05 | 0.05 | 79 | 1012.0 |
| 20260508041502 | 50 | 323 | 0.0 | 0.0 | 0.00 | 0.05 | 0.05 | 78 | 1011.9 |
| 20260508040000 | 50 | 323 | 0.0 | 1.0 | 0.00 | 0.05 | 0.05 | 76 | 1011.9 |
| 20260508034604 | 50 | 323 | 0.0 | 1.0 | 0.00 | 0.05 | 0.05 | 76 | 1011.6 |
| 20260508033101 | 50 | 323 | 0.0 | 1.0 | 0.00 | 0.05 | 0.05 | 76 | 1011.8 |
| 20260508031601 | 50 | 322 | 0.0 | 0.0 | 0.00 | 0.05 | 0.05 | 74 | 1011.7 |
| 20260508030059 | 50 | 322 | 0.0 | 3.0 | 0.00 | 0.05 | 0.05 | 74 | 1011.6 |
| 20260508024606 | 49 | 322 | 0.0 | 3.0 | 0.00 | 0.05 | 0.05 | 75 | 1011.4 |
| 20260508023057 | 49 | 319 | 0.0 | 0.0 | 0.00 | 0.05 | 0.05 | 75 | 1011.2 |
| 20260508021557 | 50 | 319 | 0.0 | 0.0 | 0.00 | 0.05 | 0.05 | 73 | 1011.0 |
| 20260508020057 | 51 | 319 | 0.0 | 0.0 | 0.00 | 0.05 | 0.05 | 72 | 1010.9 |
| 20260508014557 | 51 | 319 | 0.0 | 0.0 | 0.00 | 0.05 | 0.05 | 74 | 1010.8 |
| 20260508013055 | 51 | 319 | 0.0 | 1.0 | 0.00 | 0.05 | 0.05 | 73 | 1010.6 |
| 20260508011558 | 52 | 319 | 0.0 | 0.0 | 0.00 | 0.05 | 0.05 | 71 | 1010.5 |
| 20260508010054 | 53 | 319 | 0.0 | 1.0 | 0.00 | 0.05 | 0.05 | 71 | 1010.4 |
| 20260508004557 | 55 | 319 | 0.0 | 0.0 | 0.00 | 0.05 | 0.05 | 67 | 1010.3 |
| 20260508003103 | 56 | 319 | 0.0 | 0.0 | 0.00 | 0.05 | 0.05 | 65 | 1010.4 |
| 20260508001554 | 57 | 319 | 0.0 | 0.0 | 0.00 | 0.05 | 0.05 | 62 | 1010.4 |
| 20260508000052 | 57 | 319 | 0.0 | 0.0 | 0.00 | 0.05 | 0.05 | 63 | 1010.4 |
| 20260507234554 | 57 | 319 | 0.0 | 3.0 | 0.00 | 0.05 | 0.05 | 63 | 1010.4 |
| 20260507233100 | 58 | 318 | 1.0 | 8.0 | 0.00 | 0.05 | 0.05 | 61 | 1010.6 |
| 20260507231553 | 57 | 326 | 0.0 | 6.0 | 0.01 | 0.05 | 0.05 | 66 | 1010.7 |
| 20260507230050 | 55 | 281 | 2.0 | 10.0 | 0.01 | 0.05 | 0.05 | 67 | 1010.6 |
| 20260507224556 | 53 | 329 | 0.0 | 3.0 | 0.01 | 0.05 | 0.05 | 81 | 1010.7 |
| 20260507223049 | 52 | 329 | 1.0 | 5.0 | 0.05 | 0.05 | 0.05 | 80 | 1011.0 |
| 20260507221549 | 53 | 327 | 1.0 | 5.0 | 0.04 | 0.04 | 0.04 | 77 | 1011.0 |
| 20260507220047 | 53 | 338 | 1.0 | 10.0 | 0.04 | 0.04 | 0.04 | 74 | 1010.8 |
| 20260507214545 | 59 | 135 | 1.0 | 11.0 | 0.03 | 0.03 | 0.03 | 64 | 1010.8 |
| 20260507213144 | 61 | 282 | 4.0 | 9.0 | 0.00 | 0.00 | 0.00 | 52 | 1010.4 |
| 20260507211546 | 61 | 259 | 2.0 | 12.0 | 0.00 | 0.00 | 0.00 | 56 | 1010.4 |
| 20260507210048 | 61 | 355 | 3.0 | 10.0 | 0.00 | 0.00 | 0.00 | 56 | 1010.6 |
| 20260507204545 | 62 | 217 | 2.0 | 7.0 | 0.00 | 0.00 | 0.00 | 56 | 1010.7 |
| 20260507203043 | 61 | 250 | 3.0 | 7.0 | 0.00 | 0.00 | 0.00 | 56 | 1010.9 |
| 20260507201538 | 60 | 261 | 3.0 | 9.0 | 0.00 | 0.00 | 0.00 | 57 | 1011.2 |
| 20260507200034 | 59 | 340 | 2.0 | 12.0 | 0.00 | 0.00 | 0.00 | 61 | 1011.4 |
| 20260507194554 | 58 | 309 | 3.0 | 12.0 | 0.00 | 0.00 | 0.00 | 61 | 1011.8 |
| 20260507193029 | 58 | 310 | 2.0 | 12.0 | 0.00 | 0.00 | 0.00 | 60 | 1012.2 |
| 20260507191532 | 58 | 255 | 4.0 | 12.0 | 0.00 | 0.00 | 0.00 | 62 | 1012.4 |
| 20260507190024 | 58 | 226 | 2.0 | 10.0 | 0.00 | 0.00 | 0.00 | 61 | 1012.6 |
| 20260507184533 | 58 | 159 | 3.0 | 12.0 | 0.00 | 0.00 | 0.00 | 62 | 1012.7 |
| 20260507183036 | 58 | 261 | 4.0 | 15.0 | 0.00 | 0.00 | 0.00 | 61 | 1012.8 |
| 20260507181519 | 58 | 269 | 3.0 | 9.0 | 0.00 | 0.00 | 0.00 | 55 | 1013.1 |
| 20260507180027 | 58 | 26 | 3.0 | 14.0 | 0.00 | 0.00 | 0.00 | 52 | 1013.1 |
| 20260507174516 | 58 | 321 | 2.0 | 9.0 | 0.00 | 0.00 | 0.00 | 50 | 1013.1 |
| 20260507173016 | 58 | 265 | 4.0 | 12.0 | 0.00 | 0.00 | 0.00 | 48 | 1013.4 |
| 20260507171528 | 58 | 155 | 2.0 | 8.0 | 0.00 | 0.00 | 0.00 | 49 | 1013.6 |
| 20260507170008 | 57 | 142 | 1.0 | 4.0 | 0.00 | 0.00 | 0.00 | 51 | 1014.1 |
| 20260507164506 | 57 | 260 | 2.0 | 7.0 | 0.00 | 0.00 | 0.00 | 46 | 1014.2 |
| 20260507163004 | 57 | 203 | 1.0 | 8.0 | 0.00 | 0.00 | 0.00 | 50 | 1014.4 |
| 20260507161502 | 56 | 213 | 2.0 | 7.0 | 0.00 | 0.00 | 0.00 | 49 | 1014.7 |
| 20260507160059 | 57 | 130 | 1.0 | 8.0 | 0.00 | 0.00 | 0.00 | 48 | 1015.0 |
| 20260507154556 | 56 | 140 | 1.0 | 5.0 | 0.00 | 0.00 | 0.00 | 50 | 1015.3 |
| 20260507153057 | 55 | 138 | 1.0 | 5.0 | 0.00 | 0.00 | 0.00 | 51 | 1015.4 |
| 20260507151547 | 54 | 168 | 2.0 | 5.0 | 0.00 | 0.00 | 0.00 | 50 | 1015.6 |
| 20260507150049 | 53 | 136 | 0.0 | 4.0 | 0.00 | 0.00 | 0.00 | 53 | 1015.6 |
| 20260507144545 | 53 | 157 | 3.0 | 7.0 | 0.00 | 0.00 | 0.00 | 52 | 1015.8 |
| 20260507143039 | 52 | 177 | 0.0 | 3.0 | 0.00 | 0.00 | 0.00 | 56 | 1016.1 |
| 20260507141533 | 51 | 99 | 0.0 | 3.0 | 0.00 | 0.00 | 0.00 | 55 | 1016.4 |
| 20260507140028 | 49 | 186 | 0.0 | 4.0 | 0.00 | 0.00 | 0.00 | 60 | 1016.4 |
| 20260507134526 | 48 | 150 | 1.0 | 6.0 | 0.00 | 0.00 | 0.00 | 60 | 1016.3 |
| 20260507133021 | 46 | 157 | 0.0 | 5.0 | 0.00 | 0.00 | 0.00 | 68 | 1016.4 |
| 20260507131527 | 45 | 265 | 0.0 | 0.0 | 0.00 | 0.00 | 0.00 | 70 | 1016.6 |
| 20260507130013 | 42 | 265 | 0.0 | 0.0 | 0.00 | 0.00 | 0.00 | 74 | 1016.8 |
| 20260507124515 | 40 | 266 | 0.0 | 0.0 | 0.00 | 0.00 | 0.00 | 88 | 1016.7 |
| 20260507123005 | 37 | 266 | 0.0 | 1.0 | 0.00 | 0.00 | 0.00 | 92 | 1016.7 |